パンスターズ彗星

C/2016 R2 ( PanSTARRS )

English version
Home page
Updated on May 22, 2017

---------------------------------------------------------------------

・ プロフィール

発見日 2016年9月7日
発見光度 19.1等
発見者 Pan-STARRS 1 telescope (Haleakala)

・ 写真集

・ 軌道要素

Epoch 2018 May 2.0 TT = JDT 2458240.5
T 2018 May  9.59804 TT                                  MPCW
q   2.6023882            (2000.0)            P               Q
z  +0.0014185      Peri.   33.19304     -0.14728295     -0.52443134
 +/-0.0000059      Node    80.56927     +0.61561551     -0.71222485
e   0.9963084      Incl.   58.22334     +0.77416101     +0.46659140
From 169 observations 2016 Aug. 30-2017 Mar. 16, mean residual 0".5.

・ 星図

・ 光度変化

        m1 = 4.0 + 5 logΔ + 10.0 log r

---------------------------------------------------------------------

軌道要素はM.P.E.C. 2017-J52に掲載されたものです。
星図はステラナビゲータ Ver.10 (アストロアーツ) で作成したものです。
光度グラフはComet for Windowsで作成したものです。

---------------------------------------------------------------------

Copyright(C) Seiichi Yoshida (comet@aerith.net). All rights reserved.